{"data":{"norad_id":46495,"intl_designator":"2020-068K","name":"SALSAT","alt_names":[],"object_type":"PAYLOAD","status":"ACTIVE","operator":null,"country":"GER","launch_date":"2020-09-28","launch_site_code":"PLMSC","launch_vehicle":null,"mission":null,"orbit_class":"UNKNOWN","rcs_meters":null,"size_class":null,"mass_kg":null,"dimensions":null,"purposes":["comms","science","tech_demo"],"wikipedia_slug":null,"has_3d_model":false,"image_url":null,"decayed_at":null,"tle_current":{"epoch":"2026-09-20T00:25:08.269248Z","epoch_age_seconds":56100,"freshness":"FRESH","line1":"1 46495U 20068K   26263.01745682  .00005124  00000+0  17393-3 0  9993","line2":"2 46495  97.8892 271.9626 0008600 339.9405  20.1496 15.30977638329862","mean_motion":15.30977638,"eccentricity":0.00086,"inclination_deg":97.8892,"raan_deg":271.9626,"arg_perigee_deg":339.9405,"mean_anomaly_deg":20.1496,"bstar":0.00017393,"rev_number":32986,"period_min":94.057546253984,"perigee_km":467.00227858221,"apogee_km":478.78605218667,"semimajor_km":6851.0311653844,"source":"CELESTRAK","updated_at":"2026-09-20T09:00:47.585322Z"}}}